GW5022 Weather Reports


Display with metric or nautical units.
time (UTC)temp
F
wind
direction
speed
MPH
gust
MPH
rain 1hr
in
rain 24hr
in
rain mn
in
humidity
%
barometer
mb
20260507005738 46 241 6.0 6.0 0.00 0.43 0.42 85 1008.6
20260507005215 46 241 6.0 6.0 0.00 0.43 0.42 85 1008.6
20260507004202 46 241 4.0 5.0 0.00 0.43 0.42 84 1008.6
20260507002707 46 256 5.0 5.0 0.00 0.43 0.42 83 1008.4
20260507001202 46 263 3.0 6.0 0.00 0.43 0.42 82 1008.3
20260507000712 46 263 3.0 6.0 0.00 0.43 0.42 82 1008.3
20260506235712 46 254 5.0 5.0 0.00 0.43 0.42 80 1008.4
20260506234203 46 250 5.0 5.0 0.00 0.43 0.42 79 1008.2
20260506232711 47 256 5.0 5.0 0.00 0.43 0.42 78 1008.1
20260506232214 47 256 5.0 5.0 0.00 0.43 0.42 78 1008.1
20260506230710 47 249 7.0 8.0 0.00 0.43 0.42 78 1008.0
20260506230423 47 249 7.0 8.0 0.00 0.43 0.42 78 1008.0
20260506224702 47 299 6.0 6.0 0.00 0.43 0.42 78 1008.0
20260506223221 47 246 6.0 8.0 0.00 0.43 0.42 79 1008.0
20260506221702 48 242 8.0 8.0 0.00 0.43 0.42 79 1008.0
20260506220202 48 255 5.0 5.0 0.00 0.43 0.42 79 1008.1
20260506214702 47 282 4.0 5.0 0.00 0.43 0.42 78 1008.1
20260506213203 47 271 5.0 6.0 0.00 0.43 0.42 81 1007.9
20260506211728 47 240 6.0 6.0 0.00 0.43 0.42 82 1007.9
20260506210202 47 282 5.0 6.0 0.00 0.43 0.42 82 1008.5
20260506203202 48 291 5.0 5.0 0.00 0.43 0.42 79 1008.2
20260506201702 47 283 5.0 5.0 0.00 0.43 0.42 78 1008.2
20260506200202 47 273 5.0 5.0 0.00 0.43 0.42 79 1008.3
20260506194702 46 301 5.0 6.0 0.00 0.43 0.42 82 1008.3
20260506193202 47 310 6.0 7.0 0.00 0.43 0.42 80 1008.4
20260506191703 47 0 5.0 5.0 0.00 0.43 0.42 77 1008.4
20260506190202 47 95 3.0 5.0 0.00 0.43 0.42 80 1008.2
20260506184701 46 93 6.0 6.0 0.00 0.43 0.42 80 1008.2
20260506183202 46 105 4.0 6.0 0.00 0.43 0.42 86 1008.3
20260506181703 46 42 5.0 5.0 0.00 0.43 0.42 85 1008.3
20260506180202 45 241 2.0 5.0 0.00 0.43 0.42 88 1008.8
20260506174702 45 308 3.0 4.0 0.02 0.43 0.42 87 1008.8
20260506173202 45 292 3.0 3.0 0.02 0.43 0.42 89 1009.4
20260506171702 45 300 4.0 4.0 0.02 0.43 0.42 89 1009.4
20260506164702 44 353 3.0 3.0 0.03 0.41 0.40 86 1009.3
20260506163202 43 353 2.0 5.0 0.03 0.41 0.40 89 1009.5
20260506160202 43 326 5.0 5.0 0.06 0.40 0.39 92 1009.8
20260506154702 43 304 4.0 6.0 0.06 0.38 0.37 92 1009.8
20260506153201 43 319 5.0 5.0 0.07 0.37 0.36 93 1009.9
20260506151702 44 294 5.0 5.0 0.06 0.35 0.34 93 1009.9
20260506150203 43 249 5.0 5.0 0.08 0.34 0.33 93 1009.8
20260506144702 44 263 3.0 3.0 0.06 0.31 0.31 93 1009.8
20260506143202 44 256 5.0 6.0 0.06 0.30 0.29 93 1009.9
20260506141702 44 258 5.0 5.0 0.06 0.29 0.28 92 1009.9
20260506140202 43 238 4.0 5.0 0.04 0.26 0.25 91 1009.8
20260506134728 44 235 6.0 6.0 0.06 0.26 0.25 91 1009.8
20260506134250 44 235 6.0 6.0 0.06 0.26 0.25 91 1009.8
20260506133201 43 236 6.0 7.0 0.06 0.24 0.23 91 1010.0
20260506131701 43 240 6.0 6.0 0.07 0.23 0.22 91 1010.0
20260506130201 44 238 8.0 8.0 0.06 0.21 0.20 92 1009.9
20260506124728 44 240 8.0 8.0 0.07 0.19 0.18 92 1009.9
20260506123202 44 236 6.0 8.0 0.10 0.20 0.17 91 1009.9
20260506121701 44 252 5.0 6.0 0.09 0.18 0.15 92 1009.9
20260506120201 44 249 6.0 6.0 0.10 0.18 0.14 92 1010.1
20260506114702 44 245 6.0 8.0 0.07 0.15 0.11 92 1010.1
20260506113201 45 245 6.0 8.0 0.06 0.11 0.07 91 1010.2
20260506111728 45 229 8.0 8.0 0.06 0.10 0.06 91 1010.2
20260506104701 45 239 6.0 6.0 0.03 0.07 0.03 89 1009.7
20260506103227 46 233 8.0 9.0 0.01 0.05 0.01 88 1009.6
20260506101701 46 244 9.0 10.0 0.00 0.04 0.00 86 1009.6
20260506100202 46 240 8.0 11.0 0.00 0.04 0.00 85 1009.5
20260506094727 47 241 7.0 9.0 0.00 0.04 0.00 84 1009.5
20260506093201 47 239 7.0 8.0 0.00 0.04 0.00 85 1008.9
20260506091701 47 247 6.0 8.0 0.00 0.04 0.00 84 1008.9
20260506090202 47 239 7.0 8.0 0.00 0.04 0.00 83 1008.8
20260506084701 47 232 7.0 8.0 0.00 0.04 0.00 83 1008.8
20260506083203 47 246 8.0 10.0 0.00 0.04 0.00 83 1009.4
20260506080227 48 238 9.0 10.0 0.00 0.04 0.00 81 1009.2
20260506071701 49 237 11.0 12.0 0.00 0.04 0.00 80 1008.8
20260506070201 49 230 9.0 13.0 0.00 0.04 0.00 81 1008.8
20260506061702 49 237 10.0 12.0 0.00 0.04 0.00 83 1008.8
20260506060202 49 222 9.0 11.0 0.00 0.04 0.00 82 1008.5
20260506050201 50 237 10.0 11.0 0.00 0.04 0.00 82 1008.5
20260506044701 50 229 12.0 14.0 0.00 0.04 0.00 82 1008.5
20260506043201 50 230 12.0 13.0 0.00 0.04 0.00 82 1008.0
20260506041701 50 235 14.0 15.0 0.00 0.04 0.00 84 1008.0
20260506040230 51 235 11.0 14.0 0.00 0.04 0.04 86 1007.3
20260506034702 51 235 11.0 15.0 0.00 0.03 0.04 87 1007.3
20260506033228 51 237 10.0 13.0 0.00 0.03 0.04 87 1007.0
20260506031702 52 240 16.0 18.0 0.00 0.03 0.04 85 1007.0
20260506030228 52 248 12.0 18.0 0.00 0.03 0.04 84 1006.8
20260506025741 52 248 12.0 18.0 0.00 0.03 0.04 84 1006.8
20260506024728 53 239 14.0 16.0 0.00 0.03 0.03 84 1006.8
20260506023202 53 236 11.0 18.0 0.00 0.03 0.03 84 1007.0
20260506021702 54 231 11.0 16.0 0.00 0.03 0.03 84 1007.0
20260506020202 54 234 14.0 19.0 0.00 0.03 0.03 82 1006.6
20260506014703 55 225 11.0 14.0 0.00 0.03 0.03 81 1006.6
20260506012712 57 238 9.0 17.0 0.00 0.03 0.03 78 1006.1
20260506011711 59 230 13.0 16.0 0.00 0.03 0.03 68 1006.1